STARLINK-5680, 55455

Orbit data source: Space-Track

STARLINK-5680, 55455 is a payload satellite owned by SpaceX/Seattle (US) in LEO that was launched on Thu, 02 Feb 2023 UTC via an FALCON 9 launch vehicle from the Air Force Eastern Test Range (AFETR). Payload-class satellites include a variety of spacecraft equipped with specific instruments for various scientific and technological missions. These include communications satellites like Starlink; space stations such as the ISS; scientific satellites like the Hubble; Earth observation satellites from companies like Planet Labs, Umbra, and HawkEye 360; GPS; miniature CubeSats for education and research; and military/defense satellites.

Loading next visibility...
Identifier
55455, 2023-015G
Orbit
LEO
Country
Flag of USUS
Related business
Manufacturer
SpaceX/Seattle
Mission
Operational Commercial Communications
Bus & Motor
STARLINK, Unknown motor
Mass
305 kg wet, ~290 kg dry
Launch date (UTC)
2023-02-02 (3 years ago)
Launch vehicle
FALCON 9
Launch site
Air Force Eastern Test Range (AFETR)
Object type
Payload
Rocket body
Debris
Shape & HBR
Box + 1 Pan, 10.1 m
Radar Cross Section
13.562 m², Large (>1 m²)

Expand to show TLE details & history
Last TLE update: 9 hours ago

TLE from 9 hours ago
0 STARLINK-5680
1 55455U 23015G   26035.74351135 -.00000794  00000-0 -43737-4 0  9990
2 55455  43.0061 145.3909 0001685 293.2395  66.8270 15.02520616165799
Epoch: 2026-02-04T17:50Z
TLE epoch observation values (Epoch: 2026-02-04T17:50:39.380Z)
Latitude
-0.00002°
Longitude
102.82109°
Altitude
558.446 km
Speed
7.584 km/s
True Right ascension
09h 41m 33s
True Declination
0° 00' 00"
Sunlit
Object was in full shadow at epoch
Visualization orbit readout
Latitude
Unknown
Longitude
Unknown
Altitude
Unknown
Speed
Unknown
Apparent Right ascension
Unknown
Apparent Declination
Unknown
Sunlit
N/A
Visualization observer readout
Local Sidereal Time
04:37:54
Azimuth
Unknown
Elevation
Unknown
Doppler factor
Unknown
Orbital elements
Apogee altitude
562.219 km
Perigee altitude
559.881 km
Semi-major axis
6,939.187 km
Eccentricity
0.00017
Inclination
43.0061°
RAAN
145.3909°
Arg. of periapsis
293.2395°
True anomaly
66.84475°
Mean anomaly
66.827°
Eccentric anomaly
66.83588°
Mean motion
3.75474 °/min
Orbital period
95.88 mins
BSTAR
-0.000043737
Loading maneuver chart data...
Computing Atmospheric mass density...
Loading historical data...
Loading historical data...
Loading historical data...
Loading historical data...
Loading historical data...
Loading historical data...
Loading historical data...

Documentation

Showing up to 5 results
|